This is the latest recevied weather packets stored in our database for station/object KD8PH. If no packets are shown the sender has not sent any weather packets the latest 10 day(s).
| Time | Temp. | Humidity | Pressure | Rain* | Wind** | Luminosity | Snow |
|---|---|---|---|---|---|---|---|
| 1778094941 | 20.56° C | 82% | 1010.7 hPa | 0 mm | - | - | - |
| 1778094337 | 22.22° C | 78% | 1011 hPa | 0 mm | - | - | - |
| 1778093741 | 23.89° C | 79% | 1011.1 hPa | 0 mm | - | - | - |
| 1778093136 | 24.44° C | 79% | 1010.9 hPa | 0 mm | - | - | - |
| 1778092538 | 24.44° C | 78% | 1011.1 hPa | 0 mm | - | - | - |
| 1778091933 | 23.89° C | 79% | 1010.9 hPa | 0 mm | - | - | - |
| 1778091336 | 23.89° C | 80% | 1010.9 hPa | 0 mm | - | - | - |
| 1778090753 | 23.33° C | 80% | 1011 hPa | 0 mm | - | - | - |
| 1778090140 | 23.33° C | 80% | 1011 hPa | 0 mm | - | - | - |
| 1778089544 | 23.33° C | 80% | 1011.1 hPa | 0 mm | - | - | - |
| 1778088937 | 23.33° C | 81% | 1011.5 hPa | 0 mm | - | - | - |
| 1778088340 | 22.78° C | 81% | 1011.5 hPa | 0 mm | - | - | - |
| 1778087739 | 22.78° C | 81% | 1011.6 hPa | 0 mm | - | - | - |
| 1778087136 | 22.78° C | 81% | 1011.6 hPa | 0 mm | - | - | - |
| 1778086543 | 22.78° C | 81% | 1011.6 hPa | 0 mm | - | - | - |
| 1778085937 | 22.78° C | 82% | 1011.4 hPa | 0 mm | - | - | - |
| 1778085344 | 22.22° C | 81% | 1011.1 hPa | 0 mm | - | - | - |
| 1778084744 | 22.22° C | 82% | 1011 hPa | 0 mm | - | - | - |
| 1778084147 | 22.22° C | 82% | 1011.2 hPa | 0 mm | - | - | - |
| 1778083535 | 22.22° C | 82% | 1011.3 hPa | 0 mm | - | - | - |
| 1778082950 | 22.22° C | 82% | 1011.3 hPa | 0 mm | - | - | - |
| 1778082350 | 22.22° C | 82% | 1011.2 hPa | 0 mm | - | - | - |
| 1778081754 | 22.22° C | 82% | 1011.5 hPa | 0 mm | - | - | - |
| 1778081140 | 21.67° C | 83% | 1011.5 hPa | 0 mm | - | - | - |
| 1778080554 | 21.11° C | 85% | 1011.4 hPa | 0.25 mm | - | - | - |
* Rain latest hour (hover to see other rain measurements)
** Current wind speed in m/s (hover to see current wind gust speed)